• en France
  • Liste des pays
  • À 7 jours
  • Température de l'eau
  • Carte satellitaire
  • Carte météo
  • Widgets météo
  • user-avatar
    Se connecter

    Météo par heure à Ogorzelczyn

    Ce jour, 17 Octobre, Mercredi

    Heure Température Précipitation Vent Pression Humidité
    00:00 +13°C° 0 mm 3 m/s 755 mmHg 56%
    01:00 +14°C° 0 mm 2 m/s 755 mmHg 62%
    02:00 +14°C° 0 mm 2 m/s 754 mmHg 63%
    03:00 +13°C° 0 mm 2 m/s 754 mmHg 64%
    04:00 +13°C° 0 mm 2 m/s 754 mmHg 66%
    05:00 +13°C° 0 mm 2 m/s 754 mmHg 66%
    06:00 +13°C° 0 mm 2 m/s 755 mmHg 65%
    07:00 +13°C° 0 mm 2 m/s 755 mmHg 65%
    08:00 +15°C° 0 mm 2 m/s 755 mmHg 59%
    09:00 +17°C° 0 mm 2 m/s 755 mmHg 53%
    10:00 +18°C° 0 mm 3 m/s 755 mmHg 46%
    11:00 +20°C° 0 mm 3 m/s 755 mmHg 44%
    12:00 +21°C° 0 mm 3 m/s 754 mmHg 41%
    13:00 +22°C° 0 mm 3 m/s 754 mmHg 38%
    14:00 +21°C° 0 mm 2 m/s 754 mmHg 40%
    15:00 +21°C° 0 mm 2 m/s 754 mmHg 43%
    16:00 +20°C° 0 mm 2 m/s 754 mmHg 46%
    17:00 +19°C° 0 mm 2 m/s 754 mmHg 48%
    18:00 +18°C° 0 mm 2 m/s 754 mmHg 50%
    19:00 +17°C° 0 mm 2 m/s 754 mmHg 52%
    20:00 +16°C° 0 mm 2 m/s 754 mmHg 53%
    21:00 +16°C° 0 mm 2 m/s 754 mmHg 55%
    22:00 +15°C° 0 mm 2 m/s 754 mmHg 56%
    23:00 +15°C° 0.1 mm 2 m/s 754 mmHg 59%

    Demain, 18 Octobre, Jeudi

    Heure Température Précipitation Vent Pression Humidité
    00:00 +15°C° 0.1 mm 2 m/s 754 mmHg 61%
    01:00 +15°C° 0.1 mm 2 m/s 754 mmHg 63%
    02:00 +15°C° 0.1 mm 2 m/s 753 mmHg 68%
    03:00 +14°C° 0.1 mm 1 m/s 753 mmHg 72%
    04:00 +14°C° 0.1 mm 1 m/s 753 mmHg 76%
    05:00 +14°C° 0 mm 1 m/s 753 mmHg 77%
    06:00 +14°C° 0 mm 1 m/s 753 mmHg 78%
    07:00 +14°C° 0 mm 1 m/s 753 mmHg 80%
    08:00 +15°C° 0 mm 1 m/s 753 mmHg 74%
    09:00 +16°C° 0 mm 1 m/s 753 mmHg 67%
    10:00 +19°C° 0 mm 1 m/s 753 mmHg 61%
    11:00 +19°C° 0 mm 1 m/s 753 mmHg 58%
    12:00 +19°C° 0 mm 2 m/s 753 mmHg 54%
    13:00 +20°C° 0 mm 2 m/s 753 mmHg 51%
    14:00 +20°C° 0 mm 2 m/s 752 mmHg 53%
    15:00 +19°C° 0 mm 2 m/s 752 mmHg 55%
    16:00 +20°C° 0 mm 1 m/s 752 mmHg 57%
    17:00 +19°C° 0 mm 1 m/s 752 mmHg 60%
    18:00 +18°C° 0 mm 1 m/s 753 mmHg 63%
    19:00 +15°C° 0 mm 1 m/s 753 mmHg 66%
    20:00 +15°C° 0 mm 2 m/s 753 mmHg 68%
    21:00 +14°C° 0 mm 2 m/s 753 mmHg 70%
    22:00 +14°C° 0 mm 2 m/s 753 mmHg 73%
    23:00 +13°C° 0 mm 2 m/s 754 mmHg 75%

    Après-demain, 19 Octobre, Vendredi

    Heure Température Précipitation Vent Pression Humidité
    00:00 +13°C° 0 mm 2 m/s 754 mmHg 78%
    01:00 +13°C° 0 mm 2 m/s 754 mmHg 81%
    02:00 +12°C° 0 mm 2 m/s 754 mmHg 84%
    03:00 +12°C° 0 mm 2 m/s 754 mmHg 87%
    04:00 +10°C° 0 mm 2 m/s 754 mmHg 90%
    05:00 +10°C° 0 mm 2 m/s 755 mmHg 91%
    06:00 +10°C° 0 mm 2 m/s 755 mmHg 92%
    07:00 +12°C° 0 mm 2 m/s 755 mmHg 93%
    08:00 +12°C° 0.1 mm 2 m/s 755 mmHg 90%
    09:00 +12°C° 0.1 mm 3 m/s 756 mmHg 86%
    10:00 +13°C° 0.1 mm 3 m/s 756 mmHg 83%
    11:00 +13°C° 0 mm 3 m/s 756 mmHg 80%
    12:00 +14°C° 0 mm 3 m/s 756 mmHg 76%
    13:00 +14°C° 0 mm 3 m/s 756 mmHg 73%
    14:00 +15°C° 0 mm 2 m/s 756 mmHg 71%
    15:00 +15°C° 0 mm 2 m/s 756 mmHg 68%
    16:00 +15°C° 0 mm 2 m/s 756 mmHg 66%
    17:00 +14°C° 0 mm 2 m/s 757 mmHg 68%
    18:00 +13°C° 0 mm 2 m/s 757 mmHg 69%
    19:00 +10°C° 0 mm 2 m/s 757 mmHg 70%
    20:00 +10°C° 0 mm 2 m/s 758 mmHg 72%
    21:00 +9°C° 0 mm 2 m/s 758 mmHg 73%
    22:00 +9°C° 0 mm 2 m/s 758 mmHg 74%
    23:00 +9°C° 0 mm 1 m/s 758 mmHg 77%

    20 Octobre, Samedi

    Heure Température Précipitation Vent Pression Humidité
    00:00 +9°C° 0 mm 1 m/s 758 mmHg 80%
    01:00 +8°C° 0 mm 1 m/s 759 mmHg 82%
    02:00 +8°C° 0 mm 1 m/s 759 mmHg 83%
    03:00 +8°C° 0 mm 1 m/s 759 mmHg 84%
    04:00 +8°C° 0 mm 1 m/s 759 mmHg 85%
    05:00 +7°C° 0 mm 1 m/s 759 mmHg 85%
    06:00 +7°C° 0 mm 1 m/s 759 mmHg 85%
    07:00 +7°C° 0 mm 1 m/s 760 mmHg 85%
    08:00 +9°C° 0 mm 1 m/s 760 mmHg 79%
    09:00 +10°C° 0 mm 1 m/s 760 mmHg 72%
    10:00 +10°C° 0 mm 2 m/s 761 mmHg 66%
    11:00 +12°C° 0 mm 2 m/s 760 mmHg 62%
    12:00 +13°C° 0 mm 2 m/s 760 mmHg 58%
    13:00 +13°C° 0 mm 3 m/s 760 mmHg 55%
    14:00 +12°C° 0 mm 3 m/s 760 mmHg 57%
    15:00 +12°C° 0 mm 3 m/s 760 mmHg 59%
    16:00 +11°C° 0 mm 3 m/s 760 mmHg 61%
    17:00 +11°C° 0 mm 3 m/s 761 mmHg 64%
    18:00 +10°C° 0 mm 3 m/s 761 mmHg 67%
    19:00 +9°C° 0 mm 3 m/s 761 mmHg 70%
    20:00 +8°C° 0 mm 3 m/s 761 mmHg 72%
    21:00 +8°C° 0 mm 2 m/s 762 mmHg 74%
    22:00 +7°C° 0 mm 2 m/s 762 mmHg 77%
    23:00 +7°C° 0 mm 2 m/s 762 mmHg 78%

    21 Octobre, Dimanche

    Heure Température Précipitation Vent Pression Humidité
    00:00 +7°C° 0 mm 3 m/s 762 mmHg 79%
    01:00 +7°C° 0 mm 3 m/s 762 mmHg 80%
    02:00 +7°C° 0 mm 3 m/s 762 mmHg 80%
    03:00 +7°C° 0 mm 3 m/s 761 mmHg 80%
    04:00 +8°C° 0 mm 3 m/s 761 mmHg 80%
    05:00 +8°C° 0 mm 3 m/s 761 mmHg 81%
    06:00 +7°C° 0 mm 3 m/s 761 mmHg 82%
    07:00 +7°C° 0 mm 3 m/s 761 mmHg 84%
    08:00 +8°C° 0 mm 3 m/s 761 mmHg 81%
    09:00 +9°C° 0 mm 3 m/s 761 mmHg 78%
    10:00 +10°C° 0 mm 3 m/s 761 mmHg 75%
    11:00 +11°C° 0 mm 3 m/s 761 mmHg 71%
    12:00 +12°C° 0 mm 4 m/s 761 mmHg 68%
    13:00 +13°C° 0 mm 4 m/s 760 mmHg 65%
    14:00 +12°C° 0 mm 3 m/s 760 mmHg 66%
    15:00 +13°C° 0 mm 2 m/s 760 mmHg 67%
    16:00 +13°C° 0 mm 2 m/s 759 mmHg 68%
    17:00 +12°C° 0 mm 2 m/s 759 mmHg 72%
    18:00 +10°C° 0 mm 2 m/s 759 mmHg 75%
    19:00 +9°C° 0 mm 2 m/s 759 mmHg 79%
    20:00 +9°C° 0 mm 2 m/s 759 mmHg 80%
    21:00 +8°C° 0 mm 2 m/s 759 mmHg 81%
    22:00 +8°C° 0 mm 2 m/s 758 mmHg 82%
    23:00 +8°C° 0 mm 2 m/s 758 mmHg 82%

    22 Octobre, Lundi

    Heure Température Précipitation Vent Pression Humidité
    00:00 +7°C° 0 mm 2 m/s 758 mmHg 83%
    01:00 +7°C° 0 mm 2 m/s 758 mmHg 83%
    02:00 +7°C° 0 mm 2 m/s 757 mmHg 84%
    03:00 +7°C° 0 mm 2 m/s 757 mmHg 84%
    04:00 +6°C° 0 mm 2 m/s 757 mmHg 85%
    05:00 +5°C° 0 mm 3 m/s 757 mmHg 85%
    06:00 +5°C° 0 mm 3 m/s 757 mmHg 85%
    07:00 +5°C° 0 mm 3 m/s 756 mmHg 85%
    08:00 +8°C° 0 mm 3 m/s 756 mmHg 77%
    09:00 +8°C° 0 mm 4 m/s 756 mmHg 69%
    10:00 +11°C° 0 mm 4 m/s 756 mmHg 61%
    11:00 +10°C° 0 mm 4 m/s 756 mmHg 62%
    12:00 +10°C° 0 mm 4 m/s 756 mmHg 64%
    13:00 +10°C° 0 mm 4 m/s 756 mmHg 65%
    14:00 +10°C° 0 mm 4 m/s 756 mmHg 68%
    15:00 +10°C° 0 mm 3 m/s 756 mmHg 71%
    16:00 +10°C° 0 mm 3 m/s 756 mmHg 75%
    17:00 +9°C° 0 mm 3 m/s 756 mmHg 76%
    18:00 +8°C° 0 mm 3 m/s 756 mmHg 78%
    19:00 +7°C° 0 mm 3 m/s 756 mmHg 79%
    20:00 +7°C° 0 mm 3 m/s 756 mmHg 78%
    21:00 +5°C° 0 mm 3 m/s 756 mmHg 77%
    22:00 +5°C° 0 mm 3 m/s 756 mmHg 76%
    23:00 +5°C° 0 mm 3 m/s 756 mmHg 76%
    Voir plus